Weather History for KIRS - March, 2014

Change the Weather History Date:

Thursday, March 20, 2014

  Actual Average (KHAI) Record (KHAI)
Temperature  
Mean Temperature 34 °F -  
Max Temperature 39 °F 46 °F 81 °F (2012)
Min Temperature 28 °F 27 °F 9 °F (1965)
Degree Days  
Heating Degree Days 32    
Moisture  
Dew Point 25 °F    
Average Humidity 69    
Maximum Humidity 87    
Minimum Humidity 56    
Precipitation  
Precipitation 0.00 in - - ()
Sea Level Pressure  
Sea Level Pressure 29.98 in    
Wind  
Wind Speed 11 mph (West)    
Max Wind Speed 15 mph    
Max Gust Speed 26 mph    
Visibility 10 miles    
Events      
Averages and records for this station are not official NWS values.
T = Trace of Precipitation, MM = Missing Value Source: NWS Daily Summary

Daily Weather History Graph

Daily Weather History Graph

Search for Another Location

Airport or City:

Trip Planner

Search our weather history database for the weather conditions in past years. The results will help you decide how hot, cold, wet, or windy it might be!

Date:

Astronomy

Mar. 20, 2014 Rise Set
Actual Time 7:45 AM EDT 7:53 PM EDT
Civil Twilight 7:17 AM EDT 8:21 PM EDT
Nautical Twilight 6:44 AM EDT 8:54 PM EDT
Astronomical Twilight 6:11 AM EDT 9:27 PM EDT
Moon No Moon Rise 9:47 AM EDT (3/20)
Length of Visible Light 13h 04m
Length of Day
12h 08m
Waning Gibbous, 84% of the Moon is Illuminated
Mar 20
Waning Gibbous
Mar 23
Last Quarter
Mar 30
New
Apr 7
First Quarter
Apr 15
Full

Hourly Weather History & Observations

Time (EDT) Temp. Windchill Dew Point Humidity Pressure Visibility Wind Dir Wind Speed Gust Speed Precip Events Conditions
12:14 AM 33.8 °F 24.3 °F 30.2 °F 87% 29.89 in 7.0 mi West 13.8 mph 26.5 mph N/A   Overcast
12:35 AM 33.8 °F 23.9 °F 30.2 °F 87% 29.90 in 10.0 mi West 15.0 mph 24.2 mph N/A   Overcast
12:55 AM 33.8 °F 24.8 °F 30.2 °F 87% 29.90 in 10.0 mi West 12.7 mph 19.6 mph N/A   Overcast
1:14 AM 33.8 °F 24.3 °F 28.4 °F 81% 29.90 in 10.0 mi West 13.8 mph 21.9 mph N/A   Overcast
1:35 AM 33.8 °F 24.3 °F 28.4 °F 81% 29.91 in 10.0 mi West 13.8 mph 18.4 mph N/A   Overcast
1:54 AM 33.8 °F 25.3 °F 28.4 °F 81% 29.91 in 10.0 mi West 11.5 mph 20.7 mph N/A   Overcast
2:15 AM 33.8 °F 25.3 °F 28.4 °F 81% 29.91 in 10.0 mi West 11.5 mph 20.7 mph N/A   Overcast
2:35 AM 33.8 °F 24.3 °F 28.4 °F 81% 29.92 in 10.0 mi West 13.8 mph 19.6 mph N/A   Overcast
2:54 AM 33.8 °F 26.4 °F 28.4 °F 81% 29.92 in 10.0 mi West 9.2 mph - N/A   Overcast
3:15 AM 33.8 °F 25.8 °F 28.4 °F 81% 29.92 in 10.0 mi West 10.4 mph - N/A   Overcast
3:35 AM 33.8 °F 25.8 °F 28.4 °F 81% 29.92 in 10.0 mi West 10.4 mph - N/A   Overcast
3:54 AM 33.8 °F 25.3 °F 28.4 °F 81% 29.92 in 10.0 mi West 11.5 mph 18.4 mph N/A   Overcast
4:15 AM 33.8 °F 25.3 °F 26.6 °F 75% 29.92 in 10.0 mi West 11.5 mph - N/A   Overcast
4:35 AM 33.8 °F 25.3 °F 26.6 °F 75% 29.92 in 10.0 mi West 11.5 mph - N/A   Overcast
4:54 AM 32.0 °F 23.6 °F 26.6 °F 80% 29.92 in 10.0 mi West 10.4 mph 18.4 mph N/A   Overcast
5:15 AM 32.0 °F 23.6 °F 26.6 °F 80% 29.93 in 10.0 mi West 10.4 mph - N/A   Overcast
5:35 AM 32.0 °F 23.0 °F 26.6 °F 80% 29.93 in 10.0 mi West 11.5 mph 16.1 mph N/A   Overcast
5:55 AM 32.0 °F 22.1 °F 26.6 °F 80% 29.94 in 10.0 mi West 13.8 mph 20.7 mph N/A   Overcast
6:15 AM 32.0 °F 22.5 °F 26.6 °F 80% 29.94 in 10.0 mi West 12.7 mph 18.4 mph N/A   Overcast
6:34 AM 32.0 °F 21.6 °F 24.8 °F 75% 29.95 in 10.0 mi West 15.0 mph 18.4 mph N/A   Overcast
6:55 AM 32.0 °F 21.6 °F 23.0 °F 69% 29.95 in 10.0 mi West 15.0 mph 21.9 mph N/A   Overcast
7:15 AM 32.0 °F 23.6 °F 23.0 °F 69% 29.96 in 10.0 mi West 10.4 mph - N/A   Overcast
7:34 AM 32.0 °F 23.6 °F 24.8 °F 75% 29.96 in 10.0 mi West 10.4 mph 16.1 mph N/A   Overcast
7:55 AM 32.0 °F 23.6 °F 24.8 °F 75% 29.96 in 10.0 mi West 10.4 mph 16.1 mph N/A   Overcast
8:15 AM 32.0 °F 23.6 °F 24.8 °F 75% 29.97 in 10.0 mi West 10.4 mph - N/A   Overcast
8:34 AM 32.0 °F 23.6 °F 23.0 °F 69% 29.98 in 10.0 mi West 10.4 mph - N/A   Overcast
8:55 AM 32.0 °F 24.8 °F 23.0 °F 69% 29.98 in 10.0 mi West 8.1 mph 17.3 mph N/A   Mostly Cloudy
9:15 AM 32.0 °F 23.6 °F 23.0 °F 69% 29.99 in 10.0 mi West 10.4 mph - N/A   Mostly Cloudy
9:35 AM 32.0 °F 24.2 °F 23.0 °F 69% 29.99 in 10.0 mi West 9.2 mph - N/A   Overcast
9:54 AM 33.8 °F 25.3 °F 24.8 °F 70% 30.00 in 10.0 mi West 11.5 mph 18.4 mph N/A   Overcast
10:15 AM 33.8 °F 25.8 °F 24.8 °F 70% 30.00 in 10.0 mi West 10.4 mph 17.3 mph N/A   Overcast
10:35 AM 33.8 °F 25.8 °F 24.8 °F 70% 30.01 in 10.0 mi West 10.4 mph - N/A   Mostly Cloudy
10:54 AM 35.6 °F 26.2 °F 24.8 °F 65% 30.01 in 10.0 mi West 15.0 mph - N/A   Scattered Clouds
11:15 AM 35.6 °F 28.6 °F 24.8 °F 65% 30.01 in 10.0 mi West 9.2 mph - N/A   Mostly Cloudy
11:35 AM 35.6 °F 26.6 °F 23.0 °F 60% 30.01 in 10.0 mi West 13.8 mph 18.4 mph N/A   Mostly Cloudy
11:54 AM 35.6 °F 26.2 °F 23.0 °F 60% 30.01 in 10.0 mi WNW 15.0 mph 19.6 mph N/A   Mostly Cloudy
12:15 PM 35.6 °F 28.6 °F 23.0 °F 60% 30.01 in 10.0 mi West 9.2 mph 17.3 mph N/A   Mostly Cloudy
12:35 PM 37.4 °F 29.8 °F 24.8 °F 60% 30.00 in 10.0 mi West 11.5 mph 17.3 mph N/A   Mostly Cloudy
12:54 PM 37.4 °F 28.5 °F 24.8 °F 60% 30.00 in 10.0 mi NW 15.0 mph 20.7 mph N/A   Scattered Clouds
1:15 PM 37.4 °F 28.9 °F 24.8 °F 60% 30.00 in 10.0 mi West 13.8 mph 18.4 mph N/A   Mostly Cloudy
1:35 PM 37.4 °F 30.3 °F 24.8 °F 60% 30.00 in 10.0 mi WNW 10.4 mph - N/A   Mostly Cloudy
1:54 PM 37.4 °F 29.8 °F 24.8 °F 60% 30.00 in 10.0 mi West 11.5 mph - N/A   Mostly Cloudy
2:15 PM 39.2 °F 31.6 °F 24.8 °F 56% 30.00 in 10.0 mi West 12.7 mph 20.7 mph N/A   Mostly Cloudy
2:35 PM 39.2 °F 31.2 °F 24.8 °F 56% 29.99 in 10.0 mi West 13.8 mph 18.4 mph N/A   Mostly Cloudy
2:54 PM 37.4 °F 28.9 °F 24.8 °F 60% 29.99 in 10.0 mi West 13.8 mph 18.4 mph N/A   Mostly Cloudy
3:15 PM 39.2 °F 31.6 °F 24.8 °F 56% 29.99 in 10.0 mi WNW 12.7 mph 18.4 mph N/A   Scattered Clouds
3:35 PM 39.2 °F 31.2 °F 24.8 °F 56% 29.99 in 10.0 mi NW 13.8 mph 18.4 mph N/A   Scattered Clouds
3:54 PM 39.2 °F 31.6 °F 24.8 °F 56% 29.99 in 10.0 mi WNW 12.7 mph 18.4 mph N/A   Scattered Clouds
4:15 PM 39.2 °F 33.6 °F 24.8 °F 56% 29.99 in 10.0 mi WNW 8.1 mph 16.1 mph N/A   Scattered Clouds
4:34 PM 39.2 °F 31.6 °F 24.8 °F 56% 29.99 in 10.0 mi NW 12.7 mph 17.3 mph N/A   Scattered Clouds
4:55 PM 39.2 °F 32.5 °F 24.8 °F 56% 29.99 in 10.0 mi West 10.4 mph - N/A   Scattered Clouds
5:14 PM 39.2 °F 31.6 °F 24.8 °F 56% 29.99 in 10.0 mi West 12.7 mph 19.6 mph N/A   Scattered Clouds
5:34 PM 39.2 °F 32.0 °F 24.8 °F 56% 29.99 in 10.0 mi WNW 11.5 mph 16.1 mph N/A   Scattered Clouds
5:55 PM 37.4 °F 30.3 °F 24.8 °F 60% 29.99 in 10.0 mi WNW 10.4 mph 17.3 mph N/A   Clear
6:14 PM 37.4 °F 31.4 °F 24.8 °F 60% 29.99 in 10.0 mi WNW 8.1 mph - N/A   Clear
6:35 PM 37.4 °F 31.4 °F 23.0 °F 56% 30.00 in 10.0 mi WNW 8.1 mph - N/A   Clear
6:55 PM 37.4 °F 32.8 °F 23.0 °F 56% 30.00 in 10.0 mi NW 5.8 mph - N/A   Clear
7:14 PM 37.4 °F 33.8 °F 23.0 °F 56% 30.00 in 10.0 mi WNW 4.6 mph - N/A   Clear
7:35 PM 35.6 °F 30.7 °F 23.0 °F 60% 30.01 in 10.0 mi WNW 5.8 mph - N/A   Clear
7:55 PM 35.6 °F 32.8 °F 23.0 °F 60% 30.01 in 10.0 mi WNW 3.5 mph - N/A   Clear
8:14 PM 35.6 °F - 21.2 °F 56% 30.01 in 10.0 mi Calm Calm - N/A   Clear
8:35 PM 33.8 °F - 23.0 °F 65% 30.02 in 10.0 mi Calm Calm - N/A   Clear
8:54 PM 33.8 °F - 23.0 °F 65% 30.02 in 10.0 mi Calm Calm - N/A   Clear
9:14 PM 30.2 °F - 23.0 °F 75% 30.02 in 10.0 mi Calm Calm - N/A   Clear
9:35 PM 30.2 °F - 24.8 °F 80% 30.03 in 10.0 mi Calm Calm - N/A   Clear
9:54 PM 30.2 °F - 23.0 °F 75% 30.03 in 10.0 mi Calm Calm - N/A   Clear
10:14 PM 28.4 °F - 24.8 °F 86% 30.02 in 10.0 mi Calm Calm - N/A   Clear
10:35 PM 30.2 °F - 21.2 °F 69% 30.03 in 10.0 mi Calm Calm - N/A   Clear
10:54 PM 30.2 °F - 21.2 °F 69% 30.03 in 10.0 mi Calm Calm - N/A   Clear
11:14 PM 28.4 °F - 24.8 °F 86% 30.04 in 10.0 mi Calm Calm - N/A   Clear
11:35 PM 28.4 °F - 24.8 °F 86% 30.05 in 10.0 mi Calm Calm - N/A   Clear
11:54 PM 28.4 °F - 24.8 °F 86% 30.05 in 10.0 mi Calm Calm - N/A   Clear